Location: Plymouth
(43.7490°N, 87.9770°W)
Time: 04:17:21
(UTC-06:00)

Daily predictions for brighter satellites

Satellite Brightness Start Highest point End
(mag) Time Altitude Azimuth Time Altitude Azimuth Time Altitude Azimuth
CENTAUR R/B 4.2 03:11:31 28° E 03:11:31 28° E 03:15:45 10° NE
Cosmos 2219 Rocket 4.4 03:49:27 15° NNE 03:49:27 15° NNE 03:50:24 10° NNE
Cosmos 2333 Rocket 4.1 03:56:53 20° NNE 03:56:53 20° NNE 03:58:33 10° NNE
Cosmos 2278 Rocket 4.2 04:14:02 16° S 04:14:02 16° S 04:15:10 10° S
SL-16 R/B 2.6 04:17:22 47° SSE 04:18:45 61° ESE 04:24:21 10° NNE
Cosmos 1812 4.4 04:28:28 32° ESE 04:28:28 32° ESE 04:30:57 10° SSE
Timation 1 Rocket 4.2 04:30:47 82° WNW 04:31:01 85° WSW 04:37:01 10° SSE
USA 215 3.3 04:31:06 10° NE 04:37:40 76° SE 04:40:47 34° SW
Cosmos 1680 Rocket 3.5 04:38:54 30° S 04:41:30 79° ESE 04:46:44 10° NNE
Cosmos 2181 Rocket 3.9 04:42:26 55° NW 04:43:33 63° W 04:49:49 10° S
SKYMED 2 4.3 04:41:27 10° SSE 04:45:40 52° ENE 04:47:41 28° N
Cosmos 2151 Rocket 3.9 04:41:20 10° S 04:45:47 65° E 04:50:15 10° NNE
Cosmos 2237 Rocket 3.4 04:52:17 27° NNW 04:52:17 27° NNW 04:55:20 10° N
Cosmos 1709 Rocket 4.4 04:52:05 42° NW 04:52:05 42° NW 04:56:41 10° N
CZ-3 R/B 4.3 04:48:24 10° SSW 04:53:19 13° S 04:56:29 10° SSE
Feng Yun 1-1 Rocket 4.1 04:50:46 10° N 04:56:22 65° WNW 05:01:48 10° SSW
NOAA 6 4.0 04:54:18 10° NNE 04:59:27 84° ESE 05:04:35 10° SSW
CENTAUR R/B 2.6 04:58:46 45° W 05:00:17 55° NW 05:07:09 10° NNE
Cosmos 2112 Rocket 3.8 04:55:09 10° SSW 05:00:22 83° WNW 05:05:36 10° NNE
Meteor 1-18 Rocket 4.2 04:58:48 20° NNW 05:03:00 71° W 05:08:54 10° S
Tiangong 2 1.9 05:05:56 50° SE 05:05:56 50° SE 05:08:35 10° E
Cosmos 1536 Rocket 3.4 05:06:16 34° NNW 05:08:12 81° W 05:12:36 10° S
Gbstr 26 Del rocket 3.9 05:08:43 34° SW 05:08:43 34° SW 05:12:19 10° SSE
Cosmos 1238 Rocket 3.3 05:08:45 41° NW 05:10:12 60° W 05:15:38 10° S
ADEOS II 3.9 05:11:11 10° N 05:12:25 16° NNW 05:12:25 16° NNW
Cosmos 1603 4.1 05:10:32 10° SSW 05:16:11 66° ESE 05:21:49 10° NNE
Cosmos 2369 Rocket 3.3 05:12:33 10° NNW 05:17:58 41° ENE 05:23:20 10° SE
Lacrosse 5 rocket 3.2 05:19:05 18° N 05:19:05 18° N 05:21:36 10° NNE
Meteor 1-20 Rocket 4.1 05:21:25 10° SSW 05:26:56 59° WNW 05:32:23 10° N
Okean 1 Rocket 3.4 05:24:04 10° S 05:28:26 67° E 05:32:49 10° NNE
Cosmos 2219 Rocket 4.1 05:31:12 13° NNW 05:31:12 13° NNW 05:32:43 10° N
PSLV R/B 3.8 05:29:19 38° SW 05:30:09 48° S 05:33:26 10° ESE
Cosmos 921 Rocket 3.4 05:31:59 30° NW 05:33:37 43° WSW 05:37:53 10° S
Lacrosse 5 3.1 05:28:54 10° SSW 05:33:42 43° SE 05:38:31 10° ENE
COSMO-SKYMED 1 2.8 05:29:32 10° S 05:33:43 47° W 05:36:15 22° NW
Okean 1-7 Rocket 3.8 05:30:39 10° N 05:35:05 72° E 05:39:26 10° SSE
Nadezhda 3 Rocket 4.0 05:30:28 10° N 05:36:52 88° ENE 05:43:15 10° S
Cosmos 2333 Rocket 3.9 05:38:55 15° NNW 05:38:55 15° NNW 05:41:24 10° N
Cosmos 2056 Rocket 3.4 05:37:04 13° NNW 05:41:38 69° WSW 05:46:42 10° S
Cosmos 1943 4.2 05:38:07 10° S 05:43:30 50° ESE 05:48:56 10° NE
Cosmos 192 4.3 05:41:37 10° SSW 05:46:31 87° ESE 05:51:28 10° NNE
Okean 1 4.1 05:45:18 24° NW 05:46:40 31° W 05:50:14 10° SSW
USA 129 1.4 05:46:51 10° S 05:48:50 71° WSW 05:49:06 59° NW
Meteor 1-19 Rocket 4.2 05:46:05 10° NNW 05:51:57 77° W 05:57:44 10° S
Cosmos 44 Rocket 3.8 05:47:18 10° SSW 05:52:27 70° ESE 05:57:34 10° NE
IDEFIX/ARIANE 42P 3.7 05:50:13 10° NNE 05:55:14 47° E 06:00:14 10° S
Cosmos 2341 Rocket 4.0 05:48:57 10° S 05:55:16 89° E 06:01:34 10° N
Cosmos 1624 Rocket 4.3 05:50:58 12° NNW 05:55:41 48° WSW 06:00:46 10° S
Meteor 1-11 Rocket 3.7 05:50:05 10° SSW 05:55:58 78° W 06:01:45 10° N
Cosmos 962 Rocket 4.5 05:51:09 10° S 05:57:20 88° W 06:03:37 10° N
Ariane Rocket 3.1 05:54:52 10° N 05:59:46 51° WNW 06:04:38 10° SW
Cosmos 1300 Rocket 3.9 05:56:27 10° SSW 06:00:40 43° WNW 06:04:54 10° N
Meteor 1-29 4.2 05:58:36 10° SE 06:01:48 41° ENE 06:05:00 10° N
SL-16 R/B 3.2 05:59:25 12° W 06:03:18 24° NW 06:07:51 10° N
Cosmos 1602 4.1 05:59:56 10° SSW 06:03:42 44° WNW 06:07:32 10° N
ATLAS CENTAUR Rocket 4.4 05:59:23 10° WSW 06:04:34 17° SSW 06:07:37 10° SSE
Cosmos 1346 Rocket 4.0 06:04:27 16° NW 06:06:12 22° W 06:09:13 10° SW
SL-24 DEB 4.5 06:04:47 10° SSW 06:09:25 51° W 06:14:07 10° NNW
Cosmos 1943 Rocket 3.0 06:06:26 10° NNW 06:11:48 50° ENE 06:17:07 10° SE
SJ-12 4.0 06:10:05 10° NNE 06:14:17 87° ESE 06:18:26 10° SSW
CZ-4 R/B 1.2 06:10:38 10° N 06:14:37 80° WNW 06:18:32 10° SSW
Cosmos 2263 4.3 06:13:01 10° NNW 06:18:42 86° ENE 06:24:18 10° SSE
USA 215 3.7 06:14:19 10° NE 06:20:24 43° NNW 06:26:27 10° W
Meteor 1-23 Rocket 4.2 06:17:30 10° NNW 06:23:01 67° W 06:28:31 10° S
Lacrosse 4 Rocket 3.1 06:19:31 10° N 06:23:10 28° NE 06:26:42 10° ESE
Cosmos 1455 Rocket 3.9 06:19:52 10° S 06:24:04 53° E 06:28:18 10° NNE
Cosmos 2154 Rocket 4.4 06:21:43 10° SW 06:27:31 40° WNW 06:33:20 10° N
Cosmos 1452 Rocket 3.6 06:26:01 10° NNW 06:31:12 60° WSW 06:36:22 10° S
Cosmos 1536 3.4 06:29:04 10° SW 06:32:44 34° WNW 06:36:26 10° N
Cosmos 1633 3.8 06:30:03 10° SW 06:32:54 21° WNW 06:35:46 10° NNW
Abrixas rocket 2.7 06:34:38 10° SW 06:37:57 64° SSE 06:41:17 10° ENE
Meteor 2-4 Rocket 4.2 06:36:31 10° NNW 06:41:35 39° W 06:46:45 10° SSW
